Location: Goll?ig?dem
(16.6773°N, 80.7332°E)
Time: 07:23:52
(UTC+00:00)

Cosmos 1315 Rocket - Pass Details

Date: 21 April 2021
Orbit: 528 x 569 km, 81.2° (Epoch: 05 May)

Event Time Altitude Azimuth Distance (km) Brightness Sun altitude
Rises 23:24:43 0° 2° (N) 2,659 6.6 -13.0°
Reaches altitude 10° 23:26:55 10° 7° (N) 1,772 5.7 -12.5°
Maximum altitude 23:30:41 49° 83° (E) 690 3.8 -11.6°
Drops below altitude 10° 23:34:30 10° 159° (SSE) 1,785 5.5 -10.7°
Sets 23:36:42 0° 165° (SSE) 2,681 6.3 -10.2°
